Location: Berkeley
(37.8716°N, 122.2727°W)
Time: 10:06:37
(UTC-07:00)

Envisat - Pass Details

Date: 21 April 2024
Orbit: 762 x 764 km, 98.3° (Epoch: 29 May)

Event Time Altitude Azimuth Distance (km) Brightness Sun altitude
Rises 04:42:01 0° 9° (N) 3,235 6.9 -19.2°
Reaches altitude 10° 04:44:20 10° 7° (N) 2,305 6.0 -18.8°
Maximum altitude 04:49:22 69° 286° (WNW) 818 2.9 -18.0°
Enters shadow 04:52:11 26° 209° (SSW) 1,457 4.0 -17.5°
